User: anonymous   Login
Location: Muenchen
(48.1800°N, 11.5800°E)
Time: 11:36:46
(UTC+02:00)
Language:

Tiros 1 - Orbit

View from above orbital plane
View from above orbital plane
View from above satellite
View from above satellite

Ground track
Ground track

The orbit data is extracted from the following two-line orbital elements,

1 00029U 60002B   14294.45200715  .00000836  00000-0  15858-3 0  3602
2 00029 048.3796 335.0242 0024057 036.2545 323.9991 14.73366645913859
Epoch (UTC): 21 October 2014 10:50:53
Eccentricity: 0.0024057
inclination: 48.3796°
perigee height: 633 km
apogee height: 667 km
right ascension of ascending node: 335.0242°
argument of perigee: 36.2545°
revolutions per day: 14.73366645
mean anomaly at epoch: 323.9991°
orbit number at epoch: 91385

The dashed part of the orbit path shows where the satellite is in the earth's shadow,  

DLR